"Sample Date","Sample Time","Sample Value","Units","Flow Rate","Sample Interval","Number Channels","Micron Size 0","Counts/Channel 0","Micron Size 1","Counts/Channel 1","Micron Size 2","Counts/Channel 2","Micron Size 3","Counts/Channel 3","Micron Size 4","Counts/Channel 4","Micron Size 5","Counts/Channel 5","Micron Size 6","Counts/Channel 6","Micron Size 7","Counts/Channel 7","Micron Size 8","Counts/Channel 8","Micron Size 9","Counts/Channel 9","Micron Size 10","Counts/Channel 10","Micron Size 11","Counts/Channel 11","Micron Size 12","Counts/Channel 12","Micron Size 13","Counts/Channel 13","Micron Size 14","Counts/Channel 14","Micron Size 15","Counts/Channel 15","Micron Size 16","Counts/Channel 16","Micron Size 17","Counts/Channel 17","Micron Size 18","Counts/Channel 18","Micron Size 19","Counts/Channel 19","Micron Size 20","Counts/Channel 20","Micron Size 21","Counts/Channel 21","Micron Size 22","Counts/Channel 22","Micron Size 23","Counts/Channel 23","Micron Size 24","Counts/Channel 24","Micron Size 25","Counts/Channel 25","Micron Size 26","Counts/Channel 26","Micron Size 27","Counts/Channel 27","Micron Size 28","Counts/Channel 28","Micron Size 29","Counts/Channel 29","Micron Size 30","Counts/Channel 30","Micron Size 31","Counts/Channel 31"
"03/07/08","11:00:02",8101.000,"cc",28258.297,6.00,6,0.100,5663.000,0.200,1096.000,0.300,604.000,0.500,617.000,1.000,121.000,5.000,0
"03/07/08","11:00:08",7912.000,"cc",28358.631,6.00,6,0.100,5556.000,0.200,1077.000,0.300,616.000,0.500,553.000,1.000,110.000,5.000,0
"03/07/08","11:00:14",7899.000,"cc",28280.145,6.00,6,0.100,5552.000,0.200,1070.000,0.300,557.000,0.500,600.000,1.000,120.000,5.000,0
"03/07/08","11:00:20",8307.000,"cc",28380.703,6.00,6,0.100,5651.000,0.200,1209.000,0.300,678.000,0.500,634.000,1.000,135.000,5.000,0
"03/07/08","11:00:26",8510.000,"cc",28309.781,6.00,6,0.100,5911.000,0.200,1173.000,0.300,679.000,0.500,616.000,1.000,131.000,5.000,0
"03/07/08","11:00:32",8456.000,"cc",28311.246,6.00,6,0.100,5802.000,0.200,1154.000,0.300,709.000,0.500,667.000,1.000,124.000,5.000,0
"03/07/08","11:00:38",8481.000,"cc",28409.441,6.00,6,0.100,5854.000,0.200,1217.000,0.300,672.000,0.500,605.000,1.000,133.000,5.000,0
"03/07/08","11:00:44",8366.000,"cc",28260.225,6.00,6,0.100,5809.000,0.200,1142.000,0.300,650.000,0.500,612.000,1.000,153.000,5.000,0
"03/07/08","11:00:50",7619.000,"cc",28325.303,6.00,6,0.100,5414.000,0.200,1023.000,0.300,566.000,0.500,528.000,1.000,88.000,5.000,0
"03/07/08","11:00:56",7893.000,"cc",28352.006,6.00,6,0.100,5661.000,0.200,1043.000,0.300,583.000,0.500,521.000,1.000,85.000,5.000,0
"03/07/08","11:01:02",8007.000,"cc",28322.789,6.00,6,0.100,5738.000,0.200,1031.000,0.300,618.000,0.500,528.000,1.000,92.000,5.000,0
"03/07/08","11:01:08",8125.000,"cc",28302.213,6.00,6,0.100,5810.000,0.200,1071.000,0.300,618.000,0.500,546.000,1.000,80.000,5.000,0
"03/07/08","11:01:14",8160.000,"cc",28284.334,6.00,6,0.100,5754.000,0.200,1114.000,0.300,598.000,0.500,577.000,1.000,117.000,5.000,0
"03/07/08","11:01:20",8301.000,"cc",28258.367,6.00,6,0.100,5861.000,0.200,1103.000,0.300,644.000,0.500,584.000,1.000,109.000,5.000,0
"03/07/08","11:01:26",8262.000,"cc",28296.209,6.00,6,0.100,5860.000,0.200,1093.000,0.300,633.000,0.500,598.000,1.000,78.000,5.000,0
"03/07/08","11:01:32",7723.000,"cc",28327.842,6.00,6,0.100,5621.000,0.200,982.000,0.300,571.000,0.500,486.000,1.000,63.000,5.000,0
"03/07/08","11:01:38",8098.000,"cc",28337.816,6.00,6,0.100,5709.000,0.200,1063.000,0.300,631.000,0.500,599.000,1.000,96.000,5.000,0
"03/07/08","11:01:44",7761.000,"cc",28396.168,6.00,6,0.100,5631.000,0.200,982.000,0.300,561.000,0.500,488.000,1.000,99.000,5.000,0
"03/07/08","11:01:50",8023.000,"cc",28330.318,6.00,6,0.100,5773.000,0.200,1045.000,0.300,529.000,0.500,561.000,1.000,115.000,5.000,0
"03/07/08","11:01:56",8164.000,"cc",28321.139,6.00,6,0.100,5751.000,0.200,1090.000,0.300,616.000,0.500,582.000,1.000,125.000,5.000,0
"03/07/08","11:02:02",7888.000,"cc",28327.518,6.00,6,0.100,5699.000,0.200,998.000,0.300,568.000,0.500,522.000,1.000,101.000,5.000,0
"03/07/08","11:02:08",8082.000,"cc",28259.418,6.00,6,0.100,5694.000,0.200,1077.000,0.300,587.000,0.500,612.000,1.000,112.000,5.000,0
"03/07/08","11:02:14",8340.000,"cc",28296.051,6.00,6,0.100,5831.000,0.200,1132.000,0.300,630.000,0.500,624.000,1.000,123.000,5.000,0
"03/07/08","11:02:20",7631.000,"cc",28348.104,6.00,6,0.100,5564.000,0.200,945.000,0.300,528.000,0.500,502.000,1.000,92.000,5.000,0
"03/07/08","11:02:26",7815.000,"cc",28242.703,6.00,6,0.100,5751.000,0.200,947.000,0.300,539.000,0.500,518.000,1.000,60.000,5.000,0
"03/07/08","11:02:32",8259.000,"cc",28384.961,6.00,6,0.100,5862.000,0.200,1080.000,0.300,635.000,0.500,578.000,1.000,104.000,5.000,0
"03/07/08","11:02:38",8118.000,"cc",28371.898,6.00,6,0.100,5773.000,0.200,1046.000,0.300,594.000,0.500,571.000,1.000,134.000,5.000,0
"03/07/08","11:02:44",7854.000,"cc",28337.455,6.00,6,0.100,5603.000,0.200,1020.000,0.300,578.000,0.500,546.000,1.000,107.000,5.000,0
"03/07/08","11:02:50",7798.000,"cc",28328.272,6.00,6,0.100,5701.000,0.200,951.000,0.300,500.000,0.500,528.000,1.000,118.000,5.000,0
"03/07/08","11:02:56",8038.000,"cc",28285.219,6.00,6,0.100,5750.000,0.200,1046.000,0.300,586.000,0.500,553.000,1.000,103.000,5.000,0
"03/07/08","11:03:02",8029.000,"cc",28230.313,6.00,6,0.100,5692.000,0.200,1014.000,0.300,608.000,0.500,591.000,1.000,124.000,5.000,0
"03/07/08","11:03:08",8072.000,"cc",28234.459,6.00,6,0.100,5893.000,0.200,1006.000,0.300,540.000,0.500,535.000,1.000,98.000,5.000,0
"03/07/08","11:03:14",7948.000,"cc",28430.863,6.00,6,0.100,5713.000,0.200,979.000,0.300,580.000,0.500,539.000,1.000,137.000,5.000,0
"03/07/08","11:03:20",8197.000,"cc",28469.588,6.00,6,0.100,5782.000,0.200,1041.000,0.300,601.000,0.500,630.000,1.000,143.000,5.000,0
"03/07/08","11:03:26",7956.000,"cc",28320.928,6.00,6,0.100,5720.000,0.200,1027.000,0.300,547.000,0.500,548.000,1.000,114.000,5.000,0
"03/07/08","11:03:32",8213.000,"cc",28140.076,6.00,6,0.100,5818.000,0.200,1031.000,0.300,581.000,0.500,635.000,1.000,148.000,5.000,0
"03/07/08","11:03:38",8141.000,"cc",28303.580,6.00,6,0.100,5717.000,0.200,1051.000,0.300,596.000,0.500,629.000,1.000,148.000,5.000,0
"03/07/08","11:03:44",7959.000,"cc",28293.066,6.00,6,0.100,5652.000,0.200,981.000,0.300,580.000,0.500,615.000,1.000,131.000,5.000,0
"03/07/08","11:03:50",8468.000,"cc",28392.441,6.00,6,0.100,6037.000,0.200,983.000,0.300,645.000,0.500,651.000,1.000,152.000,5.000,0
"03/07/08","11:03:56",8183.000,"cc",28411.170,6.00,6,0.100,5758.000,0.200,1033.000,0.300,631.000,0.500,613.000,1.000,148.000,5.000,0
"03/07/08","11:04:02",8185.000,"cc",28308.014,6.00,6,0.100,5704.000,0.200,1052.000,0.300,622.000,0.500,656.000,1.000,151.000,5.000,0
"03/07/08","11:04:08",8058.000,"cc",28283.219,6.00,6,0.100,5757.000,0.200,1034.000,0.300,565.000,0.500,580.000,1.000,122.000,5.000,0
"03/07/08","11:04:14",7886.000,"cc",28216.500,6.00,6,0.100,5639.000,0.200,1040.000,0.300,544.000,0.500,540.000,1.000,123.000,5.000,0
"03/07/08","11:04:20",8263.000,"cc",28343.348,6.00,6,0.100,5795.000,0.200,1062.000,0.300,606.000,0.500,644.000,1.000,156.000,5.000,0
"03/07/08","11:04:26",8342.000,"cc",28398.875,6.00,6,0.100,5769.000,0.200,1109.000,0.300,616.000,0.500,697.000,1.000,151.000,5.000,0
"03/07/08","11:04:32",8552.000,"cc",28257.328,6.00,6,0.100,5880.000,0.200,1145.000,0.300,704.000,0.500,635.000,1.000,188.000,5.000,0
"03/07/08","11:04:38",8357.000,"cc",28250.231,6.00,6,0.100,5885.000,0.200,1037.000,0.300,607.000,0.500,659.000,1.000,169.000,5.000,0
"03/07/08","11:04:44",7623.000,"cc",28343.818,6.00,6,0.100,5452.000,0.200,916.000,0.300,603.000,0.500,533.000,1.000,119.000,5.000,0
"03/07/08","11:04:50",8036.000,"cc",28392.320,6.00,6,0.100,5711.000,0.200,948.000,0.300,604.000,0.500,619.000,1.000,154.000,5.000,0
"03/07/08","11:04:56",7924.000,"cc",28293.014,6.00,6,0.100,5652.000,0.200,951.000,0.300,576.000,0.500,587.000,1.000,158.000,5.000,0
"03/07/08","11:05:02",7914.000,"cc",28333.617,6.00,6,0.100,5555.000,0.200,1045.000,0.300,557.000,0.500,612.000,1.000,145.000,5.000,0
"03/07/08","11:05:08",8135.000,"cc",28355.984,6.00,6,0.100,5722.000,0.200,1046.000,0.300,587.000,0.500,628.000,1.000,152.000,5.000,0
"03/07/08","11:05:14",8199.000,"cc",28264.801,6.00,6,0.100,5671.000,0.200,1104.000,0.300,617.000,0.500,636.000,1.000,171.000,5.000,0
"03/07/08","11:05:20",8283.000,"cc",28240.934,6.00,6,0.100,5720.000,0.200,1063.000,0.300,661.000,0.500,670.000,1.000,169.000,5.000,0
"03/07/08","11:05:26",8061.000,"cc",28261.969,6.00,6,0.100,5615.000,0.200,1032.000,0.300,625.000,0.500,649.000,1.000,140.000,5.000,0
"03/07/08","11:05:32",8017.000,"cc",28290.885,6.00,6,0.100,5551.000,0.200,1056.000,0.300,577.000,0.500,657.000,1.000,176.000,5.000,0
"03/07/08","11:05:38",8033.000,"cc",28379.613,6.00,6,0.100,5632.000,0.200,1040.000,0.300,592.000,0.500,603.000,1.000,166.000,5.000,0
"03/07/08","11:05:44",8231.000,"cc",28342.193,6.00,6,0.100,5677.000,0.200,1076.000,0.300,632.000,0.500,677.000,1.000,169.000,5.000,0
"03/07/08","11:05:50",7679.000,"cc",28236.332,6.00,6,0.100,5444.000,0.200,991.000,0.300,496.000,0.500,615.000,1.000,133.000,5.000,0
"03/07/08","11:05:56",8282.000,"cc",28301.299,6.00,6,0.100,5687.000,0.200,1101.000,0.300,646.000,0.500,678.000,1.000,170.000,5.000,0
"03/07/08","11:06:02",8341.000,"cc",28393.809,6.00,6,0.100,5700.000,0.200,1047.000,0.300,702.000,0.500,696.000,1.000,196.000,5.000,0
"03/07/08","11:06:08",8340.000,"cc",28332.061,6.00,6,0.100,5626.000,0.200,1128.000,0.300,630.000,0.500,749.000,1.000,207.000,5.000,0
"03/07/08","11:06:14",8192.000,"cc",28298.600,6.00,6,0.100,5550.000,0.200,1068.000,0.300,667.000,0.500,700.000,1.000,207.000,5.000,0
"03/07/08","11:06:20",7922.000,"cc",28348.777,6.00,6,0.100,5470.000,0.200,1043.000,0.300,583.000,0.500,642.000,1.000,184.000,5.000,0
"03/07/08","11:06:26",8342.000,"cc",28297.963,6.00,6,0.100,5616.000,0.200,1146.000,0.300,657.000,0.500,744.000,1.000,179.000,5.000,0
"03/07/08","11:06:32",8042.000,"cc",28256.197,6.00,6,0.100,5535.000,0.200,1016.000,0.300,662.000,0.500,641.000,1.000,188.000,5.000,0
"03/07/08","11:06:38",8172.000,"cc",28353.072,6.00,6,0.100,5585.000,0.200,1059.000,0.300,628.000,0.500,714.000,1.000,186.000,5.000,0
"03/07/08","11:06:44",7892.000,"cc",28342.379,6.00,6,0.100,5466.000,0.200,1028.000,0.300,581.000,0.500,655.000,1.000,162.000,5.000,0
"03/07/08","11:06:50",7697.000,"cc",28302.895,6.00,6,0.100,5337.000,0.200,1032.000,0.300,563.000,0.500,598.000,1.000,167.000,5.000,0
"03/07/08","11:06:56",8018.000,"cc",28399.746,6.00,6,0.100,5574.000,0.200,979.000,0.300,608.000,0.500,686.000,1.000,171.000,5.000,0
"03/07/08","11:07:02",7937.000,"cc",28318.734,6.00,6,0.100,5535.000,0.200,989.000,0.300,579.000,0.500,665.000,1.000,169.000,5.000,0
"03/07/08","11:07:08",7842.000,"cc",28298.682,6.00,6,0.100,5443.000,0.200,1018.000,0.300,596.000,0.500,630.000,1.000,155.000,5.000,0
"03/07/08","11:07:14",8090.000,"cc",28354.303,6.00,6,0.100,5519.000,0.200,1096.000,0.300,590.000,0.500,702.000,1.000,183.000,5.000,0
"03/07/08","11:07:20",8180.000,"cc",28306.406,6.00,6,0.100,5784.000,0.200,1048.000,0.300,581.000,0.500,591.000,1.000,176.000,5.000,0
"03/07/08","11:07:26",8234.000,"cc",28240.018,6.00,6,0.100,5671.000,0.200,1015.000,0.300,659.000,0.500,712.000,1.000,177.000,5.000,0
"03/07/08","11:07:32",8317.000,"cc",28360.106,6.00,6,0.100,5595.000,0.200,1145.000,0.300,696.000,0.500,681.000,1.000,200.000,5.000,0
"03/07/08","11:07:38",8362.000,"cc",28294.193,6.00,6,0.100,5655.000,0.200,1073.000,0.300,666.000,0.500,765.000,1.000,203.000,5.000,0
"03/07/08","11:07:44",8457.000,"cc",28254.449,6.00,6,0.100,5711.000,0.200,1103.000,0.300,711.000,0.500,735.000,1.000,197.000,5.000,0
"03/07/08","11:07:50",8791.000,"cc",28306.660,6.00,6,0.100,5845.000,0.200,1188.000,0.300,709.000,0.500,782.000,1.000,267.000,5.000,0
"03/07/08","11:07:56",8509.000,"cc",28338.523,6.00,6,0.100,5705.000,0.200,1161.000,0.300,703.000,0.500,733.000,1.000,207.000,5.000,0
"03/07/08","11:08:02",8544.000,"cc",28366.338,6.00,6,0.100,5725.000,0.200,1172.000,0.300,677.000,0.500,781.000,1.000,189.000,5.000,0
"03/07/08","11:08:08",8654.000,"cc",28297.096,6.00,6,0.100,5738.000,0.200,1206.000,0.300,705.000,0.500,815.000,1.000,190.000,5.000,0
"03/07/08","11:08:14",8911.000,"cc",28237.154,6.00,6,0.100,5927.000,0.200,1176.000,0.300,785.000,0.500,828.000,1.000,195.000,5.000,0
"03/07/08","11:08:20",8742.000,"cc",28401.094,6.00,6,0.100,5896.000,0.200,1163.000,0.300,649.000,0.500,815.000,1.000,219.000,5.000,0
"03/07/08","11:08:26",8876.000,"cc",28311.697,6.00,6,0.100,5873.000,0.200,1226.000,0.300,729.000,0.500,836.000,1.000,212.000,5.000,0
"03/07/08","11:08:32",9040.000,"cc",28295.193,6.00,6,0.100,5953.000,0.200,1241.000,0.300,766.000,0.500,855.000,1.000,225.000,5.000,0
"03/07/08","11:08:38",8784.000,"cc",28348.160,6.00,6,0.100,5895.000,0.200,1193.000,0.300,717.000,0.500,793.000,1.000,186.000,5.000,0
"03/07/08","11:08:44",8859.000,"cc",28288.465,6.00,6,0.100,5924.000,0.200,1192.000,0.300,767.000,0.500,785.000,1.000,191.000,5.000,0
"03/07/08","11:08:50",8644.000,"cc",28367.436,6.00,6,0.100,5834.000,0.200,1123.000,0.300,784.000,0.500,742.000,1.000,161.000,5.000,0
"03/07/08","11:08:56",8619.000,"cc",28326.404,6.00,6,0.100,5972.000,0.200,1105.000,0.300,662.000,0.500,702.000,1.000,178.000,5.000,0
"03/07/08","11:09:02",8819.000,"cc",28254.400,6.00,6,0.100,6009.000,0.200,1203.000,0.300,700.000,0.500,715.000,1.000,192.000,5.000,0
"03/07/08","11:09:08",8905.000,"cc",28272.027,6.00,6,0.100,6061.000,0.200,1218.000,0.300,729.000,0.500,754.000,1.000,143.000,5.000,0
"03/07/08","11:09:14",8851.000,"cc",28293.188,6.00,6,0.100,6049.000,0.200,1212.000,0.300,731.000,0.500,714.000,1.000,145.000,5.000,0
"03/07/08","11:09:20",8770.000,"cc",28365.449,6.00,6,0.100,6013.000,0.200,1199.000,0.300,712.000,0.500,688.000,1.000,158.000,5.000,0
"03/07/08","11:09:26",9318.000,"cc",28282.246,6.00,6,0.100,6295.000,0.200,1265.000,0.300,800.000,0.500,757.000,1.000,201.000,5.000,0
"03/07/08","11:09:32",9436.000,"cc",28364.873,6.00,6,0.100,6201.000,0.200,1329.000,0.300,847.000,0.500,843.000,1.000,216.000,5.000,0
"03/07/08","11:09:38",9129.000,"cc",28296.383,6.00,6,0.100,6176.000,0.200,1306.000,0.300,725.000,0.500,767.000,1.000,155.000,5.000,0
"03/07/08","11:09:44",9125.000,"cc",28343.106,6.00,6,0.100,6298.000,0.200,1258.000,0.300,710.000,0.500,723.000,1.000,136.000,5.000,0
"03/07/08","11:09:50",8956.000,"cc",28264.852,6.00,6,0.100,6132.000,0.200,1252.000,0.300,685.000,0.500,735.000,1.000,152.000,5.000,0
"03/07/08","11:09:56",9017.000,"cc",28306.998,6.00,6,0.100,6236.000,0.200,1201.000,0.300,705.000,0.500,749.000,1.000,126.000,5.000,0
"03/07/08","11:10:02",9250.000,"cc",28281.391,6.00,6,0.100,6310.000,0.200,1291.000,0.300,765.000,0.500,736.000,1.000,148.000,5.000,0
"03/07/08","11:10:08",9314.000,"cc",28345.826,6.00,6,0.100,6429.000,0.200,1301.000,0.300,691.000,0.500,751.000,1.000,142.000,5.000,0
"03/07/08","11:10:14",9458.000,"cc",28329.822,6.00,6,0.100,6463.000,0.200,1304.000,0.300,750.000,0.500,790.000,1.000,151.000,5.000,0
"03/07/08","11:10:20",9212.000,"cc",28301.434,6.00,6,0.100,6499.000,0.200,1192.000,0.300,704.000,0.500,672.000,1.000,145.000,5.000,0
"03/07/08","11:10:26",9119.000,"cc",28327.313,6.00,6,0.100,6253.000,0.200,1266.000,0.300,715.000,0.500,729.000,1.000,156.000,5.000,0
"03/07/08","11:10:32",9147.000,"cc",28296.957,6.00,6,0.100,6350.000,0.200,1269.000,0.300,648.000,0.500,749.000,1.000,131.000,5.000,0
"03/07/08","11:10:38",8961.000,"cc",28347.061,6.00,6,0.100,6345.000,0.200,1233.000,0.300,642.000,0.500,629.000,1.000,112.000,5.000,0
"03/07/08","11:10:44",9143.000,"cc",28297.938,6.00,6,0.100,6433.000,0.200,1243.000,0.300,688.000,0.500,654.000,1.000,125.000,5.000,0
"03/07/08","11:10:50",8994.000,"cc",28299.850,6.00,6,0.100,6376.000,0.200,1233.000,0.300,718.000,0.500,576.000,1.000,91.000,5.000,0
"03/07/08","11:10:56",8940.000,"cc",28316.383,6.00,6,0.100,6402.000,0.200,1217.000,0.300,649.000,0.500,586.000,1.000,86.000,5.000,0
"03/07/08","11:11:02",9309.000,"cc",28340.629,6.00,6,0.100,6561.000,0.200,1288.000,0.300,687.000,0.500,671.000,1.000,102.000,5.000,0
"03/07/08","11:11:08",9049.000,"cc",28212.152,6.00,6,0.100,6425.000,0.200,1213.000,0.300,695.000,0.500,623.000,1.000,93.000,5.000,0
"03/07/08","11:11:14",8991.000,"cc",28377.527,6.00,6,0.100,6535.000,0.200,1172.000,0.300,648.000,0.500,563.000,1.000,73.000,5.000,0
"03/07/08","11:11:20",8725.000,"cc",28300.963,6.00,6,0.100,6370.000,0.200,1188.000,0.300,575.000,0.500,533.000,1.000,59.000,5.000,0
"03/07/08","11:11:26",8899.000,"cc",28433.873,6.00,6,0.100,6489.000,0.200,1237.000,0.300,632.000,0.500,497.000,1.000,44.000,5.000,0
"03/07/08","11:11:32",8955.000,"cc",28313.490,6.00,6,0.100,6458.000,0.200,1204.000,0.300,651.000,0.500,570.000,1.000,72.000,5.000,0
"03/07/08","11:11:38",8729.000,"cc",28297.545,6.00,6,0.100,6388.000,0.200,1142.000,0.300,626.000,0.500,499.000,1.000,74.000,5.000,0
"03/07/08","11:11:44",8916.000,"cc",28323.406,6.00,6,0.100,6536.000,0.200,1177.000,0.300,602.000,0.500,532.000,1.000,69.000,5.000,0
"03/07/08","11:11:50",9103.000,"cc",28335.938,6.00,6,0.100,6506.000,0.200,1255.000,0.300,708.000,0.500,551.000,1.000,83.000,5.000,0
"03/07/08","11:11:56",8926.000,"cc",28234.350,6.00,6,0.100,6415.000,0.200,1239.000,0.300,624.000,0.500,561.000,1.000,87.000,5.000,0
"03/07/08","11:12:02",9262.000,"cc",28315.385,6.00,6,0.100,6607.000,0.200,1193.000,0.300,727.000,0.500,625.000,1.000,110.000,5.000,0
"03/07/08","11:12:08",9048.000,"cc",28315.738,6.00,6,0.100,6574.000,0.200,1117.000,0.300,680.000,0.500,581.000,1.000,96.000,5.000,0
"03/07/08","11:12:14",8846.000,"cc",28355.865,6.00,6,0.100,6443.000,0.200,1128.000,0.300,623.000,0.500,549.000,1.000,103.000,5.000,0
"03/07/08","11:12:20",8592.000,"cc",28298.648,6.00,6,0.100,6287.000,0.200,1070.000,0.300,586.000,0.500,530.000,1.000,119.000,5.000,0
"03/07/08","11:12:26",8682.000,"cc",28300.385,6.00,6,0.100,6378.000,0.200,1072.000,0.300,595.000,0.500,533.000,1.000,104.000,5.000,0
"03/07/08","11:12:32",8534.000,"cc",28309.805,6.00,6,0.100,6350.000,0.200,1043.000,0.300,538.000,0.500,502.000,1.000,101.000,5.000,0
"03/07/08","11:12:38",8432.000,"cc",28372.996,6.00,6,0.100,6210.000,0.200,1097.000,0.300,545.000,0.500,500.000,1.000,80.000,5.000,0
"03/07/08","11:12:44",8564.000,"cc",28291.746,6.00,6,0.100,6259.000,0.200,1127.000,0.300,591.000,0.500,507.000,1.000,80.000,5.000,0
"03/07/08","11:12:50",8916.000,"cc",28419.145,6.00,6,0.100,6500.000,0.200,1152.000,0.300,557.000,0.500,595.000,1.000,112.000,5.000,0
"03/07/08","11:12:56",8183.000,"cc",28257.856,6.00,6,0.100,6137.000,0.200,932.000,0.300,526.000,0.500,508.000,1.000,80.000,5.000,0
"03/07/08","11:13:02",8532.000,"cc",28277.967,6.00,6,0.100,6371.000,0.200,988.000,0.300,532.000,0.500,537.000,1.000,104.000,5.000,0
"03/07/08","11:13:08",8441.000,"cc",28353.316,6.00,6,0.100,6264.000,0.200,1036.000,0.300,558.000,0.500,483.000,1.000,100.000,5.000,0
"03/07/08","11:13:14",8138.000,"cc",28286.420,6.00,6,0.100,6161.000,0.200,1012.000,0.300,469.000,0.500,414.000,1.000,82.000,5.000,0
"03/07/08","11:13:20",8673.000,"cc",28294.988,6.00,6,0.100,6391.000,0.200,1065.000,0.300,592.000,0.500,524.000,1.000,101.000,5.000,0
"03/07/08","11:13:26",8428.000,"cc",28233.705,6.00,6,0.100,6292.000,0.200,1013.000,0.300,533.000,0.500,512.000,1.000,78.000,5.000,0
"03/07/08","11:13:32",8323.000,"cc",28304.662,6.00,6,0.100,6353.000,0.200,1005.000,0.300,497.000,0.500,414.000,1.000,54.000,5.000,0
"03/07/08","11:13:38",8232.000,"cc",28362.293,6.00,6,0.100,6304.000,0.200,967.000,0.300,475.000,0.500,409.000,1.000,77.000,5.000,0
"03/07/08","11:13:44",8357.000,"cc",28386.684,6.00,6,0.100,6342.000,0.200,973.000,0.300,519.000,0.500,452.000,1.000,71.000,5.000,0
"03/07/08","11:13:50",8056.000,"cc",28303.445,6.00,6,0.100,6216.000,0.200,902.000,0.300,466.000,0.500,408.000,1.000,64.000,5.000,0
"03/07/08","11:13:56",8033.000,"cc",28315.781,6.00,6,0.100,6114.000,0.200,965.000,0.300,467.000,0.500,431.000,1.000,56.000,5.000,0
"03/07/08","11:14:02",8317.000,"cc",28299.268,6.00,6,0.100,6299.000,0.200,986.000,0.300,529.000,0.500,442.000,1.000,61.000,5.000,0
"03/07/08","11:14:08",8677.000,"cc",28334.734,6.00,6,0.100,6343.000,0.200,1100.000,0.300,649.000,0.500,505.000,1.000,80.000,5.000,0
"03/07/08","11:14:14",8311.000,"cc",28317.656,6.00,6,0.100,6280.000,0.200,986.000,0.300,552.000,0.500,430.000,1.000,63.000,5.000,0
"03/07/08","11:14:20",8208.000,"cc",28278.096,6.00,6,0.100,6258.000,0.200,958.000,0.300,498.000,0.500,432.000,1.000,62.000,5.000,0
"03/07/08","11:14:26",8526.000,"cc",28378.115,6.00,6,0.100,6523.000,0.200,988.000,0.300,535.000,0.500,433.000,1.000,47.000,5.000,0
"03/07/08","11:14:32",8879.000,"cc",28320.984,6.00,6,0.100,6580.000,0.200,1059.000,0.300,638.000,0.500,523.000,1.000,79.000,5.000,0
"03/07/08","11:14:38",8662.000,"cc",28315.772,6.00,6,0.100,6455.000,0.200,1100.000,0.300,519.000,0.500,514.000,1.000,74.000,5.000,0
"03/07/08","11:14:44",8857.000,"cc",28252.232,6.00,6,0.100,6652.000,0.200,1076.000,0.300,564.000,0.500,483.000,1.000,82.000,5.000,0
"03/07/08","11:14:50",8545.000,"cc",28315.586,6.00,6,0.100,6504.000,0.200,999.000,0.300,535.000,0.500,433.000,1.000,74.000,5.000,0
"03/07/08","11:14:56",8053.000,"cc",28354.752,6.00,6,0.100,6086.000,0.200,964.000,0.300,528.000,0.500,428.000,1.000,47.000,5.000,0
"03/07/08","11:15:02",8155.000,"cc",28265.721,6.00,6,0.100,6293.000,0.200,944.000,0.300,481.000,0.500,405.000,1.000,32.000,5.000,0
"03/07/08","11:15:08",8095.000,"cc",28388.613,6.00,6,0.100,6226.000,0.200,953.000,0.300,503.000,0.500,368.000,1.000,45.000,5.000,0
"03/07/08","11:15:14",7931.000,"cc",28228.672,6.00,6,0.100,6225.000,0.200,866.000,0.300,465.000,0.500,343.000,1.000,32.000,5.000,0
"03/07/08","11:15:20",7992.000,"cc",28344.930,6.00,6,0.100,6157.000,0.200,976.000,0.300,468.000,0.500,343.000,1.000,48.000,5.000,0
"03/07/08","11:15:26",8561.000,"cc",28330.076,6.00,6,0.100,6549.000,0.200,969.000,0.300,524.000,0.500,454.000,1.000,65.000,5.000,0
"03/07/08","11:15:32",8358.000,"cc",28336.859,6.00,6,0.100,6445.000,0.200,967.000,0.300,542.000,0.500,366.000,1.000,38.000,5.000,0
"03/07/08","11:15:38",8670.000,"cc",28292.285,6.00,6,0.100,6589.000,0.200,1018.000,0.300,561.000,0.500,458.000,1.000,44.000,5.000,0
"03/07/08","11:15:44",9288.000,"cc",28372.895,6.00,6,0.100,6838.000,0.200,1175.000,0.300,612.000,0.500,551.000,1.000,112.000,5.000,0
"03/07/08","11:15:50",8601.000,"cc",28252.469,6.00,6,0.100,6449.000,0.200,1003.000,0.300,586.000,0.500,502.000,1.000,61.000,5.000,0
"03/07/08","11:15:56",8532.000,"cc",28306.856,6.00,6,0.100,6515.000,0.200,1018.000,0.300,504.000,0.500,444.000,1.000,51.000,5.000,0
"03/07/08","11:16:02",8422.000,"cc",28375.258,6.00,6,0.100,6410.000,0.200,1019.000,0.300,534.000,0.500,414.000,1.000,45.000,5.000,0
"03/07/08","11:16:08",8811.000,"cc",28268.822,6.00,6,0.100,6594.000,0.200,1117.000,0.300,557.000,0.500,484.000,1.000,59.000,5.000,0
"03/07/08","11:16:14",8947.000,"cc",28236.416,6.00,6,0.100,6797.000,0.200,1070.000,0.300,537.000,0.500,465.000,1.000,78.000,5.000,0
"03/07/08","11:16:20",8287.000,"cc",28250.268,6.00,6,0.100,6337.000,0.200,980.000,0.300,503.000,0.500,409.000,1.000,58.000,5.000,0
"03/07/08","11:16:26",8568.000,"cc",28454.607,6.00,6,0.100,6490.000,0.200,1025.000,0.300,559.000,0.500,456.000,1.000,38.000,5.000,0
"03/07/08","11:16:32",8445.000,"cc",28307.877,6.00,6,0.100,6491.000,0.200,954.000,0.300,548.000,0.500,392.000,1.000,60.000,5.000,0
"03/07/08","11:16:38",7782.000,"cc",28314.244,6.00,6,0.100,6161.000,0.200,890.000,0.300,407.000,0.500,290.000,1.000,34.000,5.000,0
"03/07/08","11:16:44",8139.000,"cc",28346.365,6.00,6,0.100,6418.000,0.200,914.000,0.300,476.000,0.500,303.000,1.000,28.000,5.000,0
"03/07/08","11:16:50",8351.000,"cc",28313.336,6.00,6,0.100,6417.000,0.200,992.000,0.300,530.000,0.500,380.000,1.000,32.000,5.000,0
"03/07/08","11:16:56",7880.000,"cc",28277.867,6.00,6,0.100,6259.000,0.200,858.000,0.300,435.000,0.500,296.000,1.000,32.000,5.000,0